Date String (YYYY-MM-DD hh:mm:ss) UTC,Instrument flags,absolute air pressure of the measurement (hPa),sample flow rate (lpm),inlet stack bypass flow (lpm),air temperature of the measurement (°C),ambient temperature measured by the external sensor (°C),aerosol sample conditioner tube jacket temperature (°C),OPC LED temperature (°C),internal box temperature (°C),relative humidity of the measurement (%),span deviation,mass concentration of particles derived from Lorenz-Mie calculation of OPC scattering (μg/m³),mass concentration of particles derived from Lorenz-Mie calculation of OPC scattering (μg/m³),mass concentration of particles derived from Lorenz-Mie calculation of OPC scattering (μg/m³)
DateTimeUTC,F1_M11,P_M11,Q1_M11,Q2_M11,T1_M11,T2_M11,T3_M11,T4_M11,T5_M11,U1_M11,ZSPAN_M11,X0_M11,X2_M11,X1_M11
2023-07-25 13:00:00,SystemResetWarning,0835.1,5.00,000.00,029.4,027.6,000.0,037.9,031.0,23.5,0000.0,0010.77,0005.85,0005.02
2023-07-25 13:01:00,SystemResetWarning,0835.1,5.00,000.00,029.4,027.8,000.0,037.9,031.0,23.6,0000.0,0011.08,0005.87,0005.02
2023-07-25 13:02:00,SystemResetWarning,0834.9,4.99,000.00,029.5,028.0,000.0,037.9,031.1,23.6,0000.0,0011.13,0005.87,0005.02
2023-07-25 13:03:00,SystemResetWarning,0834.7,4.99,000.00,029.5,028.1,000.0,037.9,031.1,23.6,0000.0,0010.79,0005.80,0005.01
2023-07-25 13:04:00,SystemResetWarning,0834.7,4.99,000.00,029.5,028.2,000.0,037.9,031.2,23.4,0000.0,0010.60,0005.77,0004.99
2023-07-25 13:05:00,SystemResetWarning,0834.7,5.00,000.00,029.5,028.3,000.0,038.0,031.2,23.5,0000.0,0011.19,0005.79,0004.98
2023-07-25 13:06:00,SystemResetWarning,0834.8,4.99,000.00,029.6,028.4,000.0,038.0,031.2,23.7,0000.0,0011.56,0005.77,0004.98
2023-07-25 13:07:00,SystemResetWarning,0834.8,5.00,000.00,029.6,028.5,000.0,038.0,031.3,23.9,0000.0,0011.55,0005.75,0004.97
2023-07-25 13:08:00,SystemResetWarning,0835.1,4.99,000.00,029.7,028.5,000.0,038.0,031.3,23.7,0000.0,0011.37,0005.71,0004.95
2023-07-25 13:09:00,SystemResetWarning,0834.9,5.00,000.00,029.7,027.4,000.0,037.9,031.2,23.6,0000.0,0011.50,0005.66,0004.92
2023-07-25 13:10:00,SystemResetWarning,0834.9,5.00,000.00,029.6,025.5,000.0,037.8,030.9,23.5,0000.0,0011.84,0005.65,0004.89
2023-07-25 13:11:00,SystemResetWarning,0834.8,5.00,000.00,029.5,024.8,000.0,037.7,030.7,23.6,0000.0,0011.54,0005.61,0004.88
2023-07-25 13:12:00,SystemResetWarning,0834.9,5.01,000.00,029.4,025.1,000.0,037.7,030.5,24.1,0000.0,0011.15,0005.57,0004.86
2023-07-25 13:13:00,SystemResetWarning,0835.3,5.00,000.00,029.3,025.5,000.0,037.8,030.5,24.5,0000.0,0011.83,0005.59,0004.86
2023-07-25 13:14:00,SystemResetWarning,0835.4,5.00,000.00,029.3,026.0,000.0,037.8,030.6,24.3,0000.0,0011.90,0005.64,0004.87
2023-07-25 13:15:00,SystemResetWarning,0835.4,5.00,000.00,029.2,026.4,000.0,037.8,030.7,24.6,0000.0,0011.99,0005.68,0004.88
2023-07-25 13:16:00,SystemResetWarning,0835.0,5.00,000.00,029.2,026.8,000.0,037.8,030.7,24.1,0000.0,0011.49,0005.71,0004.88
2023-07-25 13:17:00,SystemResetWarning,0834.9,5.00,000.00,029.3,027.1,000.0,037.8,030.8,23.7,0000.0,0011.24,0005.71,0004.88
2023-07-25 13:18:00,SystemResetWarning,0835.0,4.99,000.00,029.3,027.3,000.0,037.8,030.8,23.9,0000.0,0012.00,0005.72,0004.88
2023-07-25 13:19:00,SystemResetWarning,0835.0,5.00,000.00,029.3,027.5,000.0,037.8,030.9,23.9,0000.0,0012.09,0005.70,0004.89
2023-07-25 13:20:00,SystemResetWarning,0835.0,5.00,000.00,029.3,027.7,000.0,037.8,030.9,23.7,0000.0,0012.66,0005.73,0004.90
2023-07-25 13:21:00,SystemResetWarning,0835.0,5.00,000.00,029.3,027.9,000.0,037.8,031.0,24.0,0000.0,0012.23,0005.75,0004.93
2023-07-25 13:22:00,SystemResetWarning,0835.0,5.01,000.00,029.4,028.0,000.0,037.8,031.0,24.5,0000.0,0012.46,0005.77,0004.95
2023-07-25 13:23:00,SystemResetWarning,0835.1,5.01,000.00,029.4,028.1,000.0,037.8,031.0,23.7,0000.0,0012.53,0005.76,0004.93
2023-07-25 13:24:00,SystemResetWarning,0835.1,4.99,000.00,029.4,028.2,000.0,037.8,031.1,23.3,0000.0,0012.21,0005.72,0004.93
2023-07-25 13:25:00,SystemResetWarning,0835.2,4.99,000.00,029.5,028.3,000.0,037.9,031.1,23.9,0000.0,0012.07,0005.69,0004.92
2023-07-25 13:26:00,SystemResetWarning,0835.3,5.00,000.00,029.5,028.4,000.0,037.9,031.2,24.7,0000.0,0011.95,0005.66,0004.92
2023-07-25 13:27:00,SystemResetWarning,0835.3,5.00,000.00,029.5,028.4,000.0,037.9,031.2,26.3,0000.0,0011.88,0005.63,0004.91
2023-07-25 13:28:00,SystemResetWarning,0835.2,5.00,000.00,029.6,028.4,000.0,037.9,031.2,27.9,0000.0,0011.89,0005.66,0004.92
2023-07-25 13:29:00,SystemResetWarning,0835.2,4.99,000.00,029.6,026.9,000.0,037.8,031.0,25.6,0000.0,0010.73,0005.65,0004.93
2023-07-25 13:30:00,SystemResetWarning,0835.2,5.02,000.00,029.5,025.9,000.0,037.7,030.9,23.0,0000.0,0010.70,0005.65,0004.94
2023-07-25 13:31:00,SystemResetWarning,0835.2,5.00,000.00,029.4,025.9,000.0,037.7,030.7,23.1,0000.0,0010.11,0005.63,0004.95
2023-07-25 13:32:00,SystemResetWarning,0835.2,4.99,000.00,029.3,026.2,000.0,037.8,030.7,23.7,0000.0,0010.93,0005.62,0004.93
2023-07-25 13:33:00,SystemResetWarning,0835.2,5.00,000.00,029.3,026.6,000.0,037.8,030.7,23.8,0000.0,0010.84,0005.63,0004.93
2023-07-25 13:34:00,SystemResetWarning,0835.2,5.01,000.00,029.3,026.9,000.0,037.8,030.8,23.5,0000.0,0010.86,0005.68,0004.94
2023-07-25 13:35:00,SystemResetWarning,0835.3,5.01,000.00,029.3,027.2,000.0,037.8,030.9,24.0,0000.0,0010.61,0005.72,0004.95
2023-07-25 13:36:00,SystemResetWarning,0835.3,5.00,000.00,029.4,027.5,000.0,037.8,030.9,24.4,0000.0,0010.54,0005.75,0004.95
2023-07-25 13:37:00,SystemResetWarning,0835.2,5.00,000.00,029.4,027.7,000.0,037.8,031.0,23.6,0000.0,0011.06,0005.80,0004.96
2023-07-25 13:38:00,SystemResetWarning,0835.3,5.00,000.00,029.4,027.9,000.0,037.9,031.0,23.2,0000.0,0011.33,0005.85,0004.98
2023-07-25 13:39:00,SystemResetWarning,0835.5,5.00,000.00,029.4,028.0,000.0,037.9,031.1,24.0,0000.0,0011.79,0005.89,0004.99
2023-07-25 13:40:00,SystemResetWarning,0835.4,5.00,000.00,029.5,028.1,000.0,037.9,031.1,24.5,0000.0,0012.44,0005.94,0004.98
2023-07-25 13:41:00,SystemResetWarning,0835.4,5.01,000.00,029.5,028.3,000.0,037.9,031.2,24.5,0000.0,0012.91,0006.03,0004.98
2023-07-25 13:42:00,SystemResetWarning,0835.4,5.00,000.00,029.5,028.3,000.0,037.9,031.2,23.9,0000.0,0013.06,0006.08,0004.98
2023-07-25 13:43:00,SystemResetWarning,0835.5,4.99,000.00,029.6,028.2,000.0,037.9,031.2,23.3,0000.0,0012.46,0006.12,0004.98
2023-07-25 13:44:00,SystemResetWarning,0835.3,5.00,000.00,029.6,026.7,000.0,037.8,031.1,23.1,0000.0,0012.04,0006.14,0004.99
2023-07-25 13:45:00,SystemResetWarning,0835.3,5.01,000.00,029.5,025.8,000.0,037.7,030.9,23.1,0000.0,0012.00,0006.10,0004.99
2023-07-25 13:46:00,SystemResetWarning,0835.4,5.01,000.00,029.4,026.0,000.0,037.7,030.7,23.5,0000.0,0012.30,0006.09,0004.98
2023-07-25 13:47:00,SystemResetWarning,0835.4,5.00,000.00,029.3,026.3,000.0,037.8,030.7,25.0,0000.0,0012.67,0006.07,0004.97
2023-07-25 13:48:00,SystemResetWarning,0835.4,5.00,000.00,029.3,026.6,000.0,037.8,030.8,23.6,0000.0,0012.24,0006.04,0004.94
2023-07-25 13:49:00,SystemResetWarning,0835.4,5.00,000.00,029.3,027.0,000.0,037.8,030.8,25.4,0000.0,0012.18,0006.01,0004.92
2023-07-25 13:50:00,SystemResetWarning,0835.5,4.99,000.00,029.3,027.3,000.0,037.8,030.9,27.9,0000.0,0011.62,0005.96,0004.90
2023-07-25 13:51:00,SystemResetWarning,0835.5,5.00,000.00,029.4,027.5,000.0,037.8,030.9,28.1,0000.0,0011.06,0005.87,0004.87
2023-07-25 13:52:00,SystemResetWarning,0835.5,5.00,000.00,029.4,027.7,000.0,037.8,031.0,28.5,0000.0,0010.60,0005.80,0004.84
2023-07-25 13:53:00,SystemResetWarning,0835.5,5.00,000.00,029.4,027.9,000.0,037.9,031.1,28.8,0000.0,0010.40,0005.72,0004.81
2023-07-25 13:54:00,SystemResetWarning,0835.5,5.00,000.00,029.5,028.1,000.0,037.9,031.1,26.9,0000.0,0010.73,0005.68,0004.78
2023-07-25 13:55:00,SystemResetWarning,0835.5,5.00,000.00,029.5,028.2,000.0,037.9,031.1,24.5,0000.0,0011.28,0005.66,0004.75
2023-07-25 13:56:00,SystemResetWarning,0835.5,5.00,000.00,029.5,028.3,000.0,037.9,031.2,24.4,0000.0,0011.37,0005.65,0004.72
2023-07-25 13:57:00,SystemResetWarning,0835.5,4.98,000.00,029.5,027.3,000.0,037.8,031.1,22.3,0000.0,0011.60,0005.65,0004.70
2023-07-25 13:58:00,SystemResetWarning,0835.5,5.01,000.00,029.5,026.0,000.0,037.7,030.9,22.6,0000.0,0011.25,0005.65,0004.69
2023-07-25 13:59:00,SystemResetWarning,0835.5,5.02,000.00,029.4,026.0,000.0,037.7,030.8,24.1,0000.0,0012.57,0005.62,0004.67
